Weather History for Milwaukee Timmerman, WI

Change the Weather History Date:

Tuesday, August 20, 2013

  Actual Average Record
Temperature  
Mean Temperature 74 °F -  
Max Temperature 86 °F 81 °F 97 °F (1955)
Min Temperature 62 °F 60 °F 42 °F (1950)
Cooling Degree Days 9    
Growing Degree Days 24 (Base 50)    
Moisture  
Dew Point 60 °F    
Average Humidity 71    
Maximum Humidity 88    
Minimum Humidity 35    
Precipitation  
Precipitation 0.00 in - - ()
Sea Level Pressure  
Sea Level Pressure 30.06 in    
Wind  
Wind Speed 3 mph (SSW)    
Max Wind Speed 14 mph    
Max Gust Speed 21 mph    
Visibility 9 miles    
Events      
Averages and records for this station are not official NWS values.
T = Trace of Precipitation, MM = Missing Value Source: NWS Daily Summary

Daily Weather History Graph

Daily Weather History Graph

Search for Another Location

Airport:

Trip Planner

Search our weather history database for the weather conditions in past years. The results will help you decide how hot, cold, wet, or windy it might be!

Date:

Astronomy

Aug. 20, 2013 Rise Set
Actual Time 6:03 AM CDT 7:46 PM CDT
Civil Twilight 5:33 AM CDT 8:16 PM CDT
Nautical Twilight 4:56 AM CDT 8:53 PM CDT
Astronomical Twilight 4:16 AM CDT 9:32 PM CDT
Moon 7:16 PM CDT (8/20) 5:33 AM CDT (8/20)
Length of Visible Light 14h 43m
Length of Day
13h 42m
Full, 100% of the Moon is Illuminated
Aug 20
Full
Aug 20
Full
Aug 28
Last Quarter
Sep 5
New
Sep 12
First Quarter

Hourly Weather History & Observations

Time (CDT) Temp. Heat Index Dew Point Humidity Pressure Visibility Wind Dir Wind Speed Gust Speed Precip Events Conditions
12:15 AM 64.4 °F - 59.0 °F 83% 30.05 in 10.0 mi Calm Calm - N/A   Clear
12:35 AM 64.4 °F - 59.0 °F 83% 30.05 in 10.0 mi Calm Calm - N/A   Clear
12:55 AM 64.4 °F - 59.0 °F 83% 30.05 in 10.0 mi Calm Calm - N/A   Clear
1:15 AM 64.4 °F - 59.0 °F 83% 30.05 in 10.0 mi Calm Calm - N/A   Clear
1:35 AM 64.4 °F - 59.0 °F 83% 30.05 in 7.0 mi Calm Calm - N/A   Clear
1:55 AM 64.4 °F - 59.0 °F 83% 30.06 in 7.0 mi Calm Calm - N/A   Clear
2:15 AM 64.4 °F - 59.0 °F 83% 30.06 in 7.0 mi Calm Calm - N/A   Clear
2:35 AM 64.4 °F - 59.0 °F 83% 30.06 in 7.0 mi Calm Calm - N/A   Clear
2:55 AM 64.4 °F - 59.0 °F 83% 30.06 in 7.0 mi Calm Calm - N/A   Clear
3:15 AM 64.4 °F - 59.0 °F 83% 30.06 in 7.0 mi Calm Calm - N/A   Clear
3:35 AM 62.6 °F - 59.0 °F 88% 30.06 in 7.0 mi Calm Calm - N/A   Scattered Clouds
3:55 AM 62.6 °F - 59.0 °F 88% 30.06 in 7.0 mi Calm Calm - N/A   Scattered Clouds
4:15 AM 64.4 °F - 59.0 °F 83% 30.06 in 7.0 mi Calm Calm - N/A   Clear
4:35 AM 62.6 °F - 59.0 °F 88% 30.06 in 7.0 mi Calm Calm - N/A   Clear
4:55 AM 62.6 °F - 59.0 °F 88% 30.06 in 7.0 mi SSW 3.5 mph - N/A   Clear
5:15 AM 62.6 °F - 59.0 °F 88% 30.07 in 7.0 mi Calm Calm - N/A   Clear
5:35 AM 62.6 °F - 59.0 °F 88% 30.07 in 7.0 mi Calm Calm - N/A   Clear
5:55 AM 64.4 °F - 59.0 °F 83% 30.08 in 7.0 mi Calm Calm - N/A   Clear
6:15 AM 64.4 °F - 59.0 °F 83% 30.08 in 7.0 mi Calm Calm - N/A   Clear
6:35 AM 62.6 °F - 59.0 °F 88% 30.09 in 7.0 mi Calm Calm - N/A   Clear
6:45 AM 64.4 °F - 60.8 °F 88% 30.09 in 10.0 mi Calm Calm - N/A   Clear
6:55 AM 64.4 °F - 59.0 °F 83% 30.09 in 7.0 mi Calm Calm - N/A   Clear
7:45 AM 68.0 °F - 62.6 °F 83% 30.10 in 10.0 mi Calm Calm - N/A   Clear
8:45 AM 73.4 °F - 62.6 °F 69% 30.11 in 10.0 mi SW 5.8 mph - N/A   Clear
9:45 AM 77.0 °F - 62.6 °F 61% 30.10 in 10.0 mi WSW 8.1 mph - N/A   Clear
10:45 AM 80.6 °F 81.8 °F 62.6 °F 54% 30.11 in 10.0 mi SW 11.5 mph 16.1 mph N/A   Clear
11:50 AM 82.4 °F 82.9 °F 60.8 °F 48% 30.09 in 10.0 mi WSW 11.5 mph 20.7 mph N/A   Clear
12:45 PM 82.4 °F 82.9 °F 60.8 °F 48% 30.08 in 10.0 mi SSW 11.5 mph 17.3 mph N/A   Clear
1:45 PM 84.2 °F 83.5 °F 57.2 °F 40% 30.07 in 10.0 mi SW 13.8 mph 19.6 mph N/A   Scattered Clouds
2:45 PM 82.4 °F 82.0 °F 57.2 °F 42% 30.06 in 10.0 mi SSW 10.4 mph - N/A   Scattered Clouds
3:45 PM 86.0 °F 84.5 °F 55.4 °F 35% 30.04 in 10.0 mi SSW 11.5 mph 17.3 mph N/A   Scattered Clouds
4:45 PM 84.2 °F 83.5 °F 57.2 °F 40% 30.04 in 10.0 mi SSW 13.8 mph 19.6 mph N/A   Clear
5:45 PM 82.4 °F 82.9 °F 60.8 °F 48% 30.03 in 10.0 mi SSW 12.7 mph - N/A   Clear
6:45 PM 80.6 °F 81.5 °F 60.8 °F 51% 30.03 in 10.0 mi SSW 12.7 mph - N/A   Clear
7:45 PM 78.8 °F - 60.8 °F 54% 30.03 in 10.0 mi SSW 5.8 mph - N/A   Clear
8:45 PM 77.0 °F - 60.8 °F 57% 30.04 in 10.0 mi South 5.8 mph - N/A   Clear
9:15 PM 75.2 °F - 60.8 °F 61% 30.05 in 10.0 mi South 6.9 mph - N/A   Clear
9:35 PM 73.4 °F - 60.8 °F 65% 30.05 in 10.0 mi South 4.6 mph - N/A   Clear
9:55 PM 73.4 °F - 60.8 °F 65% 30.05 in 10.0 mi South 5.8 mph - N/A   Clear
10:15 PM 73.4 °F - 60.8 °F 65% 30.06 in 10.0 mi SSW 4.6 mph - N/A   Clear
10:35 PM 73.4 °F - 60.8 °F 65% 30.06 in 10.0 mi SSW 4.6 mph - N/A   Clear
10:55 PM 71.6 °F - 60.8 °F 69% 30.05 in 10.0 mi SSW 5.8 mph - N/A   Clear
11:15 PM 71.6 °F - 60.8 °F 69% 30.06 in 10.0 mi SSW 4.6 mph - N/A   Clear
11:35 PM 71.6 °F - 60.8 °F 69% 30.06 in 10.0 mi SSW 8.1 mph - N/A   Clear
11:55 PM 71.6 °F - 60.8 °F 69% 30.05 in 10.0 mi SSW 6.9 mph - N/A   Clear